Regional Weather Roundup
Issued by NWS

Home | Current Version | Previous Version | Graphics & Text | Print | Product List | Glossary On
Versions: 1 2 3 4 5 6 7 8 9 10 11 12 13 14 15 16 17 18 19 20 21 22 23 24 25 26 27 28 29 30 31 32 33 34 35 36 37 38 39 40 41 42 43 44 45 46 47 48 49 50
000
ASUS44 KMEG 190010
RWRTN
TENNESSEE HOURLY STATE WEATHER ROUNDUP
NATIONAL WEATHER SERVICE MEMPHIS TN
700 PM CDT THU SEP 18 2014

TNZ002-004-019-021-049-052-054-088>092-190100-
WEST TENNESSEE

CITY           SKY/WX    TMP DP  RH WIND       PRES   REMARKS
MEMPHIS INTL   MOCLDY    75  65  70 NE13      29.94R
NWS MEMPHIS      N/A     72 N/A N/A MISG        N/A
JACKSON        CLOUDY    70  65  84 CALM      29.97R
DYERSBURG      MOCLDY    70  57  64 CALM      29.99R
UNION CITY     CLEAR     70  61  73 CALM      29.98R
PARIS          CLEAR     63  59  88 CALM      30.00R
HUNTINGDON     PTCLDY    66  59  78 NE3       29.99R
LEXINGTON      CLEAR     70  63  78 NE5       29.97S
SAVANNAH       MOCLDY    70  70 100 CALM      29.97R
$$

TNZ008-025-027-028-033-062-065-066-190100-
NORTH MIDDLE TENNESSEE

CITY           SKY/WX    TMP DP  RH WIND       PRES   REMARKS
NASHVILLE      CLOUDY    72  59  63 NE5       29.99R
DICKSON        CLOUDY    66  61  82 CALM      30.00R
PORTLAND       CLEAR     66  59  77 NE5       29.99R
CLARKSVILLE    MOCLDY    70  59  68 NE6       29.99R
LEBANON        CLOUDY    70  60  70 CALM      29.98R
SMYRNA         CLOUDY    70  61  73 CALM      30.00R
MURFREESBORO   CLOUDY    72  59  63 CALM      29.98R
COOKEVILLE     CLEAR     66  63  88 CALM      30.00S
GALLATIN       CLOUDY    70  63  78 N3        30.00R
CROSSVILLE     CLOUDY    68  58  70 NE6       30.04R
$$

TNZ061-075-076-078-094-096-097-190100-
SOUTH MIDDLE TENNESSEE

CITY           SKY/WX    TMP DP  RH WIND       PRES   REMARKS
LEWISBURG      CLOUDY    70  61  73 N5        29.98R
FAYETTEVILLE   CLEAR     72  61  68 W3        29.98R
TULLAHOMA      CLEAR     70  55  60 NE5       30.00R
WINCHESTER     PTCLDY    72  55  56 CALM      29.99R
MCMINNVILLE    CLEAR     70  63  78 CALM      30.00R
COLUMBIA       CLOUDY    72  61  68 N5        29.97S
SHELBYVILLE    CLEAR     72  59  64 NE5       29.99S
$$

TNZ017-018-042-046-047-190100-
NORTHEAST TENNESSEE

CITY           SKY/WX    TMP DP  RH WIND       PRES   REMARKS
TRI CITIES     MOCLDY    68  54  60 CALM      30.03R
ELIZABETHTON   CLOUDY    66  57  72 CALM      30.04R
$$

TNZ012-013-036-069-073-074-190100-
CENTRAL EAST TENNESSEE

CITY           SKY/WX    TMP DP  RH WIND       PRES   REMARKS
KNOXVILLE      CLOUDY    70  57  63 NE7       29.98R
OAK RIDGE      CLOUDY    70  60  70 CALM      30.01R
GATLINBURG     CLEAR     66  55  68 CALM      30.00R
MORRISTOWN     CLEAR     66  59  77 CALM      30.03R
$$

TNZ083-085-099-190100-
SOUTHEAST TENNESSEE

CITY           SKY/WX    TMP DP  RH WIND       PRES   REMARKS
CHATTANOOGA    MOCLDY    76  54  46 NE6       29.97S
$$

SKY/WX REPORTED AS FAIR MEANS FEW OR NO CLOUDS BELOW
12 THOUSAND FEET.



USA.gov is the U.S. government's official web portal to all federal, state and local government web resources and services.